Home   Weather   Borås   Past weeks

Flag for Sweden Past Weather in Borås, Sweden — Yesterday and Last 2 Weeks

Now
34 °F

Clear.


Feels Like: 29 °F
Forecast: 26 / 45 °F
Wind: 6 mph from North

Location: Gothenburg / Landvetter

Current Time: Dec 6, 2016 at 4:09:55 am

Latest Report: Dec 6, 2016 at 3:20 am


Visibility: 10 mi

Pressure: 30.24 "Hg

Humidity: 81%

Dew Point: 28 °F

Location of BoråsLocation

Past Weather in Borås — Graph

°F

Borås Temperature Yesterday

Maximum temperature yesterday: 41 °F (at 12:20 am)
Minimum temperature yesterday: 34 °F (at 7:50 pm)
Average temperature yesterday: 39 °F

High & Low Weather Summary for the Past Weeks

 TemperatureHumidityPressure
High46 °F (Nov 22, 7:20 am)100% (Nov 21, 4:20 am)30.42 "Hg (Nov 21, 4:20 am)
Low23 °F (Nov 28, 6:50 pm)48% (Nov 27, 7:20 am)29.36 "Hg (Nov 21, 2:20 am)
Average37 °F83%29.99 "Hg
* Reported Nov 21 2:20 am — Dec 6 2:50 am, Borås, Weather by CustomWeather, © 2016

Note: Actual official high and low records may vary slightly from our data, if they occured in-between our weather recording intervals... More about our weather records

Advertising

Borås Weather History for the Previous 24 Hours

Scroll right to see more
 ConditionsComfort  
Time TempWeatherWind HumidityBarometerVisibility
2:50 am
Tue, Dec 6
34 °FClear.5 mph81%30.24 "Hg10 mi
2:20 am36 °FClear.5 mph81%30.21 "Hg10 mi
1:50 am36 °FClear.5 mph75%30.21 "Hg10 mi
1:20 am36 °FClear.5 mph81%30.18 "Hg10 mi
12:50 am34 °FClear.8 mph87%30.18 "Hg10 mi
12:20 am34 °FClear.6 mph87%30.15 "Hg10 mi
11:50 pm
Mon, Dec 5
36 °FClear.6 mph87%30.15 "Hg10 mi
11:20 pm34 °FClear.7 mph87%30.15 "Hg10 mi
10:50 pm36 °FClear.7 mph87%30.12 "Hg10 mi
10:20 pm36 °FClear.7 mph93%30.12 "Hg10 mi
9:50 pm36 °FClear.7 mph93%30.12 "Hg10 mi
9:20 pm36 °FClear.7 mph93%30.09 "Hg10 mi
8:50 pm36 °FClear.6 mph93%30.09 "Hg10 mi
8:20 pm36 °FClear.6 mph93%30.07 "Hg10 mi
7:50 pm34 °FClear.6 mph93%30.07 "Hg10 mi
7:20 pm37 °FClear.5 mph93%30.07 "Hg10 mi
6:50 pm37 °FClear.5 mph93%30.07 "Hg10 mi
6:20 pm39 °FClear.5 mph87%30.04 "Hg10 mi
5:50 pm39 °FClear.5 mph93%30.04 "Hg10 mi
5:20 pm37 °FClear.5 mph93%30.04 "Hg10 mi
4:50 pm37 °FClear.6 mph93%30.04 "Hg10 mi
4:20 pm37 °FClear.6 mph93%30.04 "Hg10 mi
3:50 pm37 °FClear.6 mph93%30.04 "Hg10 mi
3:20 pm39 °FSunny.5 mph93%30.04 "Hg10 mi
2:50 pm39 °FSunny.3 mph93%30.04 "Hg10 mi
2:20 pm39 °FSunny.5 mph93%30.04 "Hg10 mi
1:50 pm41 °FSunny.5 mph87%30.04 "Hg10 mi
1:20 pm41 °FSunny.8 mph87%30.01 "Hg10 mi
12:50 pm41 °FSunny.8 mph87%30.04 "Hg10 mi
12:20 pm41 °FSunny.9 mph87%30.04 "Hg10 mi
11:50 am41 °FSunny.9 mph87%30.04 "Hg10 mi
11:20 am41 °FSunny.10 mph87%30.04 "Hg10 mi
10:50 am41 °FSunny.12 mph87%30.04 "Hg10 mi
10:20 am41 °FSunny.12 mph87%30.04 "Hg10 mi
9:50 am41 °FSunny.9 mph87%30.04 "Hg10 mi
9:20 am39 °FPassing clouds.9 mph93%30.04 "HgN/A
8:50 am39 °FScattered clouds.12 mph93%30.04 "HgN/A
8:20 am41 °FPassing clouds.10 mph93%30.04 "HgN/A
7:50 am41 °FLow clouds.10 mph93%30.04 "HgN/A
7:20 am41 °FLow clouds.12 mph93%30.04 "HgN/A
6:50 am41 °FLow clouds.12 mph93%30.04 "HgN/A
6:20 am41 °FLow clouds.14 mph93%30.04 "HgN/A
5:50 am41 °FLow clouds.14 mph93%30.04 "HgN/A
5:20 am41 °FLow clouds.13 mph93%30.07 "HgN/A
4:50 am41 °FLow clouds.16 mph93%30.07 "HgN/A
4:20 am41 °FPassing clouds.15 mph93%30.07 "HgN/A
Weather by CustomWeather, © 2016

See weather overviewHow to use our weather pages